Regional Weather Roundup
Issued by NWS

Home | Current Version | Previous Version | Text Only | Print | Product List | Glossary Off
Versions: 1 2 3 4 5 6 7 8 9 10 11 12 13 14 15 16 17 18 19 20 21 22 23 24 25 26 27 28 29 30 31 32 33 34 35 36 37 38 39 40 41 42 43 44 45 46 47 48 49 50

000
ASUS43 KMKX 040600
RWRWI

WISCONSIN REGIONAL WEATHER ROUNDUP
NATIONAL WEATHER SERVICE MILWAUKEE/SULLIVAN WI
100 AM CDT MON MAY 04 2015

NOTE: "FAIR" INDICATES FEW OR NO CLOUDS BELOW 12,000 FEET WITH NO
SIGNIFICANT WEATHER AND/OR OBSTRUCTIONS TO VISIBILITY.

WIZ001-002-006>008-014>016-023>028-040700-
NORTHWEST WISCONSIN

CITY           SKY/WX    TMP DP  RH WIND       PRES   REMARKS
SUPERIOR ARPT  PTCLDY    54  34  47 N14       29.96R
ASHLAND        CLOUDY    51  44  77 NW6       29.95R
6HR MIN TEMP:  49; 6HR MAX TEMP:  65; 6HR PCP:  0.02;

HAYWARD        CLOUDY    47  44  90 CALM      29.95R
6HR MIN TEMP:  47; 6HR MAX TEMP:  64; 6HR PCP: TRACE;

SIREN          PTCLDY    46  42  86 CALM      29.96R
CUMBERLAND     CLOUDY    52  43  71 NW3       29.95R
RICE LAKE      CLOUDY    55  45  69 NW3       29.96R
CHETEK         CLOUDY    54  52  92 NW3       29.93R
LADYSMITH      CLOUDY    54  51  92 N6        29.93S
EAU CLAIRE     CLOUDY    55  52  89 CALM      29.92R
6HR MIN TEMP:  54; 6HR MAX TEMP:  75; 6HR PCP:  1.06;

MENOMONIE      CLOUDY    58  53  84 NW5       29.92R
NEW RICHMOND   MOCLDY    52  46  78 CALM      29.96R
OSCEOLA        PTCLDY    52  46  78 CALM      29.99R
$$

WIZ003>005-009-010-017-018-040700-
NORTH CENTRAL WISCONSIN

CITY           SKY/WX    TMP DP  RH WIND       PRES   REMARKS
MANITOWISH WTR CLOUDY    50  48  92 CALM      29.92S
ARBOR VITAE    CLOUDY    52  49  90 N6        29.92R
WOODRUFF       CLOUDY    52  49  90 N6        29.92R
RHINELANDER    CLOUDY    53  50  89 CALM      29.90F
6HR MIN TEMP:  52; 6HR MAX TEMP:  67; 6HR PCP:  0.39;

EAGLE RIVER    CLOUDY    54  51  91 N7        29.91R
LAND O LAKES   CLOUDY    52  51  97 CALM      29.93R
PHILLIPS       PTCLDY    51  51  99 N5        29.91S
TOMAHAWK       CLOUDY    50  49  96 CALM      29.91F FOG
MEDFORD        CLOUDY    55  53  94 NE5       29.90S
MERRILL        CLOUDY    54  53  96 N6        29.89F
$$

WIZ029-030-035-036-043>047-040700-
CENTRAL WISCONSIN

CITY           SKY/WX    TMP DP  RH WIND       PRES   REMARKS
WAUSAU         CLOUDY    57  55  93 NW3       29.87S
6HR MIN TEMP:  57; 6HR MAX TEMP:  75; 6HR PCP:  0.29;

MOSINEE        CLOUDY    55  55 100 CALM      29.88S
MARSHFIELD     CLOUDY    58  50  76 E3        29.88F
6HR MIN TEMP:  58; 6HR MAX TEMP:  75; 6HR PCP:  0.49;

STEVENS POINT  CLOUDY    55  55  97 SE3       29.89S
WAUPACA        RAIN      61  57  88 NW5       29.90F
WAUTOMA        LGT RAIN  61  57  88 CALM      29.93R FOG
WISC RAPIDS    LGT RAIN  58  55  90 SE7       29.88F
6HR MIN TEMP:  58; 6HR MAX TEMP:  76; 6HR PCP:  0.41;

CAMP DOUGLAS   NOT AVBL
$$

WIZ011>013-019>022-031-037>040-048>050-040700-
NORTHEAST WISCONSIN

CITY           SKY/WX    TMP DP  RH WIND       PRES   REMARKS
ANTIGO         CLOUDY    55  55  97 SE7       29.88F
SHAWANO        LGT RAIN  61  57  88 N6        29.88F
OCONTO         CLOUDY    60  58  93 W7        29.91R
STURGEON BAY   CLOUDY    59  54  82 E3        29.91F
6HR MIN TEMP:  57; 6HR MAX TEMP:  70;

GREEN BAY      CLOUDY    61  57  87 NE9       29.89F
6HR MIN TEMP:  61; 6HR MAX TEMP:  75; 6HR PCP:  0.05;

MANITOWOC      LGT RAIN  59  54  82 S3        29.89R
APPLETON       LGT RAIN  59  54  82 N14       29.89S
CLINTONVILLE   LGT RAIN  59  55  88 SE3       29.89F
OSHKOSH        RAIN      62  57  83 N15       29.89R
6HR MIN TEMP:  62; 6HR MAX TEMP:  72; 6HR PCP:  0.04;

$$

WIZ032>034-041-042-053>061-040700-
SOUTHWEST WISCONSIN

CITY           SKY/WX    TMP DP  RH WIND       PRES   REMARKS
LA CROSSE      CLOUDY    61  57  87 S5        29.88R
6HR MIN TEMP:  60; 6HR MAX TEMP:  81; 6HR PCP:  0.82;

SPARTA         CLOUDY    59  57  95 E5        29.85F
VIROQUA        CLOUDY    57  57 100 SE14G21   29.87F
BOSCOBEL       CLOUDY    60  57  89 N5        29.91F
6HR MIN TEMP:  59; 6HR MAX TEMP:  76; 6HR PCP:  0.51;

PRAIRIE DU CHI LGT RAIN  58  56  94 SE7       29.90S
PLATTEVILLE    CLOUDY    58  56  90 NW6       29.98R
$$

WIZ056-057-062-063-064-067-068-040700-
SOUTH CENTRAL WISCONSIN

CITY           SKY/WX    TMP DP  RH WIND       PRES   REMARKS
REEDSBURG      RAIN      58  57  97 SW6       29.94R
BARABOO/DELLS  NOT AVBL
LONE ROCK      RAIN      60  57  89 N5        29.94F
MINERAL POINT  RAIN      59  55  88 N18G26    29.94S
MADISON        TSTM      59  57  93 W6        29.98R FOG
6HR MIN TEMP:  59; 6HR MAX TEMP:  70; 6HR PCP:  0.20;

MIDDLETON      CLOUDY    60  56  86 W9        29.98R
WATERTOWN      CLOUDY    63  57  81 W14G22    29.89R
MONROE         CLOUDY    63  55  77 NW29G38   29.95R THUNDER
JANESVILLE     CLOUDY    64  54  68 S10       29.87F
$$

WIZ051-052-058>065-066-070>072-040700-
SOUTHEAST WISCONSIN

CITY           SKY/WX    TMP DP  RH WIND       PRES   REMARKS
MILWAUKEE      CLOUDY    65  52  62 SW15G21   29.86F
6HR MIN TEMP:  63; 6HR MAX TEMP:  67;

WAUKESHA       CLOUDY    61  52  72 S8        29.87F
MILWAUKEE/TIMM CLOUDY    64  50  59 SW13G20   29.86F
RACINE         CLOUDY    66  52  60 SW14      29.88F
6HR MIN TEMP:  61; 6HR MAX TEMP:  67; 6HR PCP: TRACE;

BURLINGTON     CLOUDY    58  53  82 S9        29.87F
KENOSHA        CLOUDY    66  53  63 SW15      29.87F
6HR MIN TEMP:  61; 6HR MAX TEMP:  66; 6HR PCP:  0.01;

FOND DU LAC    TSTM      61  57  87 W13       29.90R
6HR MIN TEMP:  61; 6HR MAX TEMP:  72; 6HR PCP:  0.14;

SHEBOYGAN      CLOUDY    65  54  67 NW8G18    29.88R
6HR MIN TEMP:  61; 6HR MAX TEMP:  72;

WEST BEND      CLOUDY    63  52  67 S12G18    29.85F
JUNEAU         CLOUDY    61  56  83 NW3       29.92R
$$

LSZ147-162-040700-
LAKE SUPERIOR

STATION/POSITION TIME  TEMP    WIND        PRES    WAVE
                       AIR SEA DIR/SP/G            HT/PER
                 (UTC) (F)     (DEG/KT/KT) (MB)    (FT/S)
W MID LAKE BUOY  0450   46 35  230/  6/ 10 1012.7R   1/ 3
DEVILS ISLAND    0500   54     300/  9/ 10 1012.9R
PORT WING        0500   49     280/  7/ 10 1013.2
SAXON HARBOR     0500   51     190/  1/  6 1012.5R
$$

LMZ867-665-643>646-040700-
LAKE MICHIGAN

STATION/POSITION TIME  TEMP    WIND        PRES    WAVE
                       AIR SEA DIR/SP/G            HT/PER
                 (UTC) (F)     (DEG/KT/KT) (MB)    (FT/S)
CHAMBERS ISLAND  0500   57     130/  5/  7 1011.9F
NORTHPORT PIER   0500   53     190/  3/  6 1011.9S
SISTER BAY       0502   53     150/  7/  8   N/A
KEWAUNEE LAKESHO 0512   51      30/  1/  5 1012.0R
SHEBOYGAN LAKESH 0500   49     180/ 11/ 11 1011.5F
PORT WASHINGTON  0500   53     180/  6/  9 1011.5
ATWATER BUOY     0500   52     180/ 10/ 14 1012.6F
MILWAUKEE LAKESH 0500   62     190/  6/ 11   N/A
KENOSHA   LAKESH 0500   52     180/  9/ 13 1012.2S
$$

TC  - TEMPERATURE IN CELSIUS
VSB - VISIBILITY IN STATUTE MILES
WCI - WIND CHILL INDEX
HX  - HEAT INDEX




USA.gov is the U.S. government's official web portal to all federal, state and local government web resources and services.